COSMOS 1244

导读 | 星芒AI

COSMOS 1244 是苏联于1980年12月23日发射的一颗军事侦察卫星,搭载于联盟号火箭,运行在近地轨道。该卫星属于“坦德拉”(Tsel) 系列,主要用于电子侦察,收集外国雷达和通信信号情报。其轨道参数显示为近圆形,倾角约82度,使其能够覆盖全球大部分地区。COSMOS 1244 在轨运行数月后失联,最终再入大气层销毁。该卫星体现了冷战时期苏联在空间侦察领域的技术能力。

基本信息
目录编号:
12297
目录名称:
COSMOS 1244
国际标识:
1981-013A
轨道中心:
EARTH
卫星名称:
COSMOS 1244
卫星全名:
--
卫星状态:
在轨 (已飞行16330 天)
发射日期:
1981-02-12 UTC
国别 :
俄罗斯(独联体) (CIS)
星等 :
--
轨道信息
数据来源 国际轨道数据 AOE轨道数据
星历时间 2025-10-28T18:34:52+0800
20小时前
查看轨道信息
2025-10-28T10:00:00+0800
1天前
查看轨道信息
半长轴 7359.025km 7359.025km
偏心率 0.0031674 0.0031628
轨道倾角 82.950° 82.952°
近地点辐角 116.612° 117.645°
升交点赤经 257.142° 257.407°
平近点角 3.462° 33.266°
近地点 957.581km 957.614km
远地点 1004.199km 1004.166km
周期 104.710分钟 104.710分钟
每日圈数 13.752206 13.752208
详细信息
使用方式:
暂无
2D轨道图
3D轨道图
轨道高度分析图
轨道倾角分析图
轨道综合分析图
查看轨道综合分析图